Weather History for LTAJ - September, 2013

Change the Weather History Date:

Friday, September 27, 2013

  Actual Average Record
Temperature  
Mean Temperature 67 °F -  
Max Temperature 85 °F 84 °F 93 °F (2001)
Min Temperature 49 °F 58 °F 49 °F (2013)
Cooling Degree Days 2    
Growing Degree Days 17 (Base 50)    
Moisture  
Dew Point 46 °F    
Average Humidity 48    
Maximum Humidity 82    
Minimum Humidity 12    
Precipitation  
Precipitation 0.00 in - - ()
Sea Level Pressure  
Sea Level Pressure 29.91 in    
Wind  
Wind Speed 2 mph ()    
Max Wind Speed 10 mph    
Max Gust Speed -    
Visibility 6.0 miles    
Events      
Averages and records for this station are not official NWS values.
T = Trace of Precipitation, MM = Missing Value Source: Averaged Metar Reports

Daily Weather History Graph

Daily Weather History Graph

Search for Another Location

Airport or City:

Trip Planner

Search our weather history database for the weather conditions in past years. The results will help you decide how hot, cold, wet, or windy it might be!

Date:

Astronomy

Sep. 27, 2013 Rise Set
Actual Time 6:21 AM EEST 6:19 PM EEST
Civil Twilight 5:56 AM EEST 6:45 PM EEST
Nautical Twilight 5:25 AM EEST 7:15 PM EEST
Astronomical Twilight 4:55 AM EEST 7:45 PM EEST
Moon 11:59 PM EEST (9/27) 1:34 PM EEST (9/27)
Length of Visible Light 12h 49m
Length of Day
11h 57m
Waning Gibbous, 48% of the Moon is Illuminated
Sep 27
Waning Gibbous
Oct 5
New
Oct 12
First Quarter
Oct 19
Full
Oct 27
Last Quarter

Hourly Weather History & Observations

Time (EEST) Temp. Dew Point Humidity Pressure Visibility Wind Dir Wind Speed Gust Speed Precip Events Conditions
12:20 AM 59.0 °F 44.6 °F 59% 30.01 in - Calm Calm - N/A   Clear
12:50 AM 59.0 °F 44.6 °F 59% 29.98 in - Calm Calm - N/A   Clear
1:20 AM 57.2 °F 46.4 °F 67% 29.98 in - Calm Calm - N/A   Clear
1:50 AM 55.4 °F 44.6 °F 67% 29.98 in - Calm Calm - N/A   Clear
2:20 AM 55.4 °F 44.6 °F 67% 29.98 in - Calm Calm - N/A   Clear
2:50 AM 55.4 °F 44.6 °F 67% 29.98 in - Calm Calm - N/A   Clear
3:00 AM 56 °F 45 °F 57% 29.87 in 6 mi Calm Calm - -  
3:20 AM 55.4 °F 44.6 °F 67% 29.98 in - Calm Calm - N/A   Clear
3:50 AM 55.4 °F 44.6 °F 67% 29.95 in - Calm Calm - N/A   Clear
4:20 AM 53.6 °F 44.6 °F 72% 29.95 in - Calm Calm - N/A   Clear
4:50 AM 53.6 °F 44.6 °F 72% 29.95 in - Calm Calm - N/A   Clear
5:20 AM 50.0 °F 42.8 °F 76% 29.95 in - West 2.3 mph - N/A   Clear
5:50 AM 50.0 °F 44.6 °F 82% 29.95 in - Calm Calm - N/A   Clear
6:20 AM 51.8 °F 42.8 °F 71% 29.95 in - Calm Calm - N/A   Clear
6:50 AM 51.8 °F 44.6 °F 76% 29.95 in - West 5.8 mph - N/A   Clear
7:20 AM 55.4 °F 44.6 °F 67% 29.98 in - West 3.5 mph - N/A   Clear
7:50 AM 62.6 °F 44.6 °F 52% 29.98 in - Calm Calm - N/A   Clear
8:20 AM 68.0 °F 48.2 °F 49% 29.98 in - Calm Calm - N/A   Clear
8:50 AM 71.6 °F 48.2 °F 43% 29.98 in - Calm Calm - N/A   Clear
9:00 AM 72 °F 47 °F 29% 29.88 in 6 mi Calm Calm - -  
9:20 AM 73.4 °F 46.4 °F 38% 29.98 in - Calm Calm - N/A   Clear
9:50 AM 77.0 °F 46.4 °F 34% 29.98 in - Variable 1.2 mph - N/A   Clear
10:20 AM 78.8 °F 44.6 °F 30% 29.95 in - Variable 1.2 mph - N/A   Clear
10:50 AM 80.6 °F 44.6 °F 28% 29.95 in - Calm Calm - N/A   Clear
11:20 AM 80.6 °F 42.8 °F 26% 29.95 in - Variable 2.3 mph - N/A   Clear
11:50 AM 80.6 °F 44.6 °F 28% 29.92 in - NE 3.5 mph - N/A   Clear
12:20 PM 80.6 °F 41.0 °F 24% 29.92 in - East 3.5 mph - N/A   Clear
12:50 PM 82.4 °F 41.0 °F 23% 29.92 in - East 5.8 mph - N/A   Clear
1:20 PM 80.6 °F 41.0 °F 24% 29.89 in - ENE 4.6 mph - N/A   Clear
1:50 PM 82.4 °F 39.2 °F 21% 29.89 in - East 5.8 mph - N/A   Clear
2:20 PM 84.2 °F 41.0 °F 22% 29.89 in - ESE 6.9 mph - N/A   Clear
2:50 PM 84.2 °F 41.0 °F 22% 29.86 in - South 8.1 mph - N/A   Clear
3:00 PM 84 °F 39 °F 12% 29.78 in 6 mi South 8.1 mph - -  
3:20 PM 84.2 °F 39.2 °F 20% 29.86 in - West 5.8 mph - N/A   Clear
3:50 PM 86.0 °F 37.4 °F 18% 29.86 in - Calm Calm - N/A   Clear
4:20 PM 86.0 °F 41.0 °F 20% 29.86 in - Calm Calm - N/A   Clear
4:50 PM 84.2 °F 39.2 °F 20% 29.83 in - Variable 4.6 mph - N/A   Clear
5:20 PM 82.4 °F 42.8 °F 25% 29.83 in - SW 4.6 mph - N/A   Clear
5:50 PM 80.6 °F 39.2 °F 23% 29.83 in - South 6.9 mph - N/A   Clear
6:20 PM 77.0 °F 44.6 °F 32% 29.83 in - SW 4.6 mph - N/A   Clear
6:50 PM 75.2 °F 50.0 °F 41% 29.83 in - SW 5.8 mph - N/A   Clear
7:20 PM 73.4 °F 50.0 °F 44% 29.83 in - WSW 6.9 mph - N/A   Clear
7:50 PM 73.4 °F 53.6 °F 50% 29.86 in - WSW 10.4 mph - N/A   Clear
8:20 PM 71.6 °F 57.2 °F 60% 29.86 in - WSW 8.1 mph - N/A   Clear
8:50 PM 69.8 °F 55.4 °F 60% 29.86 in - SW 1.2 mph - N/A   Clear
9:00 PM 70 °F 56 °F 52% 29.77 in 6 mi SW 1.2 mph - -  
9:20 PM 68.0 °F 57.2 °F 68% 29.86 in - SW 6.9 mph - N/A   Clear
9:50 PM 68.0 °F 57.2 °F 68% 29.86 in - WSW 4.6 mph - N/A   Clear
10:20 PM 66.2 °F 57.2 °F 73% 29.86 in - Calm Calm - N/A   Clear
10:50 PM 64.4 °F 55.4 °F 73% 29.86 in - Calm Calm - N/A   Clear
11:20 PM 64.4 °F 53.6 °F 68% 29.83 in - West 4.6 mph - N/A   Clear
11:50 PM 64.4 °F 53.6 °F 68% 29.83 in - West 3.5 mph - N/A   Clear